Marshfield, WI

4:07 AM CDT on July 23, 2017 (GMT -0500)
Marshfield Municipal

Weather History for KMFI - November, 2013

Change the Weather History Date:

Monday, November 4, 2013

  Actual Average Record
Temperature  
Mean Temperature 44 °F -  
Max Temperature 48 °F 45 °F 72 °F (2008)
Min Temperature 39 °F 28 °F 2 °F (1951)
Degree Days  
Heating Degree Days 20    
Moisture  
Dew Point 40 °F    
Average Humidity 84    
Maximum Humidity 100    
Minimum Humidity 63    
Precipitation  
Precipitation 0.00 in - - ()
Sea Level Pressure  
Sea Level Pressure 30.05 in    
Wind  
Wind Speed 13 mph (SSW)    
Max Wind Speed 20 mph    
Max Gust Speed 28 mph    
Visibility 7 miles    
Events Rain    
Averages and records for this station are not official NWS values.
T = Trace of Precipitation, MM = Missing Value Source: NWS Daily Summary

Daily Weather History Graph

Daily Weather History Graph

Search for Another Location

Airport or City:

Trip Planner

Search our weather history database for the weather conditions in past years. The results will help you decide how hot, cold, wet, or windy it might be!

Date:

Astronomy

Nov. 04, 2013 Rise Set
Actual Time 6:42 AM CST 4:45 PM CST
Civil Twilight 6:12 AM CST 5:15 PM CST
Nautical Twilight 5:37 AM CST 5:50 PM CST
Astronomical Twilight 5:03 AM CST 6:24 PM CST
Moon 7:56 AM CST (11/4) 5:47 PM CST (11/4)
Length of Visible Light 11h 03m
Length of Day
10h 02m
New Moon, 2% of the Moon is Illuminated
Nov 4
New Moon
Nov 9
First Quarter
Nov 17
Full
Nov 25
Last Quarter
Dec 2
New

Hourly Weather History & Observations

Time (CST) Temp. Windchill Dew Point Humidity Pressure Visibility Wind Dir Wind Speed Gust Speed Precip Events Conditions
12:54 AM 41.0 °F 33.9 °F 34.0 °F 76% 30.14 in 10.0 mi SSE 12.7 mph 23.0 mph N/A   Clear
1:54 AM 42.1 °F 33.9 °F 34.0 °F 73% 30.11 in 10.0 mi SSE 17.3 mph 25.3 mph N/A   Clear
2:54 AM 42.1 °F 34.2 °F 34.0 °F 73% 30.10 in 10.0 mi SSE 16.1 mph 27.6 mph N/A   Clear
3:54 AM 42.1 °F 33.3 °F 34.0 °F 73% 30.09 in 10.0 mi SSE 19.6 mph 27.6 mph N/A   Partly Cloudy
4:54 AM 42.1 °F 35.2 °F 34.0 °F 73% 30.09 in 10.0 mi SSE 12.7 mph 23.0 mph N/A   Clear
5:54 AM 42.1 °F 35.2 °F 34.0 °F 73% 30.08 in 10.0 mi SSE 12.7 mph 20.7 mph N/A   Clear
6:54 AM 42.1 °F 34.2 °F 34.0 °F 73% 30.05 in 10.0 mi SE 16.1 mph 25.3 mph N/A   Partly Cloudy
7:54 AM 43.0 °F 36.0 °F 34.0 °F 71% 30.06 in 10.0 mi SSE 13.8 mph - N/A   Overcast
8:54 AM 44.1 °F 37.7 °F 35.1 °F 71% 30.06 in 10.0 mi SSE 12.7 mph 21.9 mph N/A   Overcast
9:54 AM 45.0 °F 38.5 °F 35.1 °F 68% 30.05 in 10.0 mi SSE 13.8 mph - N/A   Mostly Cloudy
10:54 AM 46.9 °F - 35.1 °F 63% 30.04 in 10.0 mi South 13.8 mph 21.9 mph N/A   Scattered Clouds
11:54 AM 48.0 °F - 36.0 °F 63% 29.99 in 10.0 mi SSE 16.1 mph 23.0 mph N/A   Overcast
12:54 PM 46.9 °F - 37.0 °F 68% 29.99 in 10.0 mi South 12.7 mph - N/A   Overcast
1:54 PM 46.9 °F - 37.9 °F 71% 29.98 in 10.0 mi South 13.8 mph - 0.00 in   Overcast
2:54 PM 46.0 °F 41.0 °F 39.9 °F 79% 30.00 in 10.0 mi South 10.4 mph - 0.00 in Rain Light Rain
3:54 PM 45.0 °F 39.3 °F 42.1 °F 90% 30.01 in 7.0 mi South 11.5 mph - 0.00 in   Overcast
4:11 PM 44.6 °F 39.2 °F 42.8 °F 93% 29.98 in 6.0 mi South 10.4 mph - N/A   Overcast
4:25 PM 44.6 °F 40.2 °F 42.8 °F 93% 29.98 in 6.0 mi South 8.1 mph - 0.00 in Rain Light Rain
4:47 PM 44.6 °F 39.7 °F 42.8 °F 93% 29.99 in 7.0 mi SSW 9.2 mph - 0.00 in Rain Light Rain
4:54 PM 45.0 °F 40.6 °F 42.1 °F 90% 30.02 in 7.0 mi SSW 8.1 mph - 0.00 in Rain Light Rain
5:03 PM 44.6 °F 38.8 °F 42.8 °F 93% 29.99 in 7.0 mi SSW 11.5 mph - 0.00 in Rain Light Rain
5:10 PM 44.6 °F 38.8 °F 42.8 °F 93% 29.99 in 8.0 mi South 11.5 mph - 0.00 in Rain Light Rain
5:35 PM 44.6 °F 39.7 °F 42.8 °F 93% 30.00 in 3.0 mi SSW 9.2 mph - 0.00 in Rain Light Rain
5:52 PM 44.6 °F 39.7 °F 42.8 °F 93% 30.01 in 3.0 mi South 9.2 mph - 0.00 in Rain Light Rain
5:54 PM 45.0 °F 40.1 °F 43.0 °F 93% 30.04 in 3.0 mi SSW 9.2 mph - 0.00 in Rain Light Rain
6:24 PM 44.6 °F 38.8 °F 42.8 °F 93% 30.02 in 3.0 mi SSW 11.5 mph - 0.00 in   Overcast
6:37 PM 44.6 °F 38.4 °F 42.8 °F 93% 30.02 in 2.5 mi SSW 12.7 mph - 0.00 in   Overcast
6:54 PM 45.0 °F 40.1 °F 43.0 °F 93% 30.06 in 2.5 mi SSW 9.2 mph - 0.00 in Rain Light Rain
7:02 PM 44.6 °F 39.7 °F 42.8 °F 93% 30.03 in 3.0 mi SSW 9.2 mph - 0.00 in   Overcast
7:11 PM 44.6 °F 38.8 °F 44.6 °F 100% 30.02 in 2.5 mi SSW 11.5 mph - 0.00 in   Overcast
7:19 PM 44.6 °F 39.7 °F 44.6 °F 100% 30.02 in 3.0 mi SSW 9.2 mph - 0.00 in   Overcast
7:54 PM 46.0 °F 41.4 °F 44.1 °F 93% 30.07 in 5.0 mi SW 9.2 mph - 0.00 in   Overcast
8:31 PM 46.4 °F 42.4 °F 44.6 °F 93% 30.06 in 7.0 mi WSW 8.1 mph - N/A   Overcast
8:54 PM 46.0 °F 41.4 °F 43.0 °F 89% 30.09 in 8.0 mi West 9.2 mph - N/A   Overcast
9:54 PM 45.0 °F 41.2 °F 42.1 °F 90% 30.12 in 9.0 mi West 6.9 mph - N/A   Overcast
10:32 PM 42.8 °F 39.3 °F 41.0 °F 93% 30.11 in 8.0 mi West 5.8 mph - N/A   Scattered Clouds
10:54 PM 42.1 °F 37.7 °F 39.9 °F 92% 30.15 in 6.0 mi West 6.9 mph - N/A   Clear
11:54 PM 39.0 °F 35.7 °F 37.0 °F 93% 30.17 in 4.0 mi West 4.6 mph - N/A   Clear